EW0890 Weather Reports


time (UTC)temp
C
wind
direction
speed
KPH
gust
KPH
rain 1hr
cm
rain 24hr
cm
rain mn
cm
humidity
%
barometer
mb
20260506164512 12 288 9.7 12.9 0.00 0.10 0.00 59 1015.3
20260506164007 12 278 8.0 12.9 0.00 0.10 0.00 53 1015.3
20260506162507 12 285 1.6 11.3 0.00 0.10 0.00 63 1015.1
20260506162006 12 290 3.2 11.3 0.00 0.10 0.00 61 1015.0
20260506161007 11 271 3.2 6.4 0.00 0.10 0.00 62 1014.8
20260506160506 11 281 1.6 6.4 0.00 0.10 0.00 64 1014.8
20260506160015 11 306 3.2 6.4 0.00 0.10 0.00 65 1014.8
20260506155504 11 54 1.6 4.8 0.00 0.10 0.00 69 1014.9
20260506155003 11 274 0.0 3.2 0.00 0.10 0.00 70 1014.8
20260506154514 11 70 0.0 4.8 0.00 0.10 0.00 66 1014.8
20260506154006 10 11 1.6 4.8 0.00 0.10 0.00 68 1014.7
20260506153507 10 18 0.0 6.4 0.00 0.10 0.00 69 1014.5
20260506153015 10 49 1.6 6.4 0.00 0.10 0.00 66 1014.5
20260506152506 10 11 1.6 6.4 0.00 0.10 0.00 69 1014.5
20260506151511 10 64 1.6 4.8 0.00 0.10 0.00 71 1014.4
20260506151003 10 69 1.6 6.4 0.00 0.10 0.00 71 1014.5
20260506150505 10 48 1.6 6.4 0.00 0.10 0.00 70 1014.4
20260506145504 9 9 3.2 8.0 0.00 0.10 0.00 72 1014.2
20260506145003 9 36 1.6 6.4 0.00 0.10 0.00 70 1014.2
20260506144532 9 49 3.2 6.4 0.00 0.10 0.00 70 1014.2
20260506144003 9 61 3.2 8.0 0.00 0.10 0.00 70 1014.2
20260506143504 8 51 1.6 8.0 0.00 0.10 0.00 72 1014.2
20260506143016 8 51 4.8 6.4 0.00 0.10 0.00 70 1014.3
20260506142505 8 46 3.2 6.4 0.00 0.10 0.00 70 1014.2
20260506142004 8 40 1.6 4.8 0.00 0.10 0.00 73 1014.3
20260506141516 8 34 0.0 3.2 0.00 0.10 0.00 76 1014.4
20260506140504 8 278 1.6 4.8 0.00 0.10 0.00 78 1014.4
20260506140015 8 297 0.0 1.6 0.00 0.10 0.00 79 1014.3
20260506135504 8 285 0.0 1.6 0.00 0.10 0.00 81 1014.2
20260506135003 7 279 0.0 1.6 0.00 0.10 0.00 81 1014.3
20260506134516 7 283 0.0 1.6 0.00 0.10 0.00 81 1014.3
20260506134006 7 283 0.0 1.6 0.00 0.10 0.00 82 1014.3
20260506133504 7 283 0.0 3.2 0.00 0.10 0.00 82 1014.5
20260506133014 7 283 0.0 4.8 0.00 0.10 0.00 83 1014.6
20260506132505 7 274 3.2 4.8 0.00 0.10 0.00 83 1014.5
20260506132005 7 271 0.0 1.6 0.00 0.10 0.00 82 1014.4
20260506131514 7 271 0.0 1.6 0.00 0.10 0.00 83 1014.4
20260506130507 7 263 0.0 1.6 0.00 0.10 0.00 83 1014.4
20260506124515 7 38 0.0 1.6 0.00 0.10 0.00 83 1013.7
20260506124004 7 231 0.0 1.6 0.00 0.10 0.00 84 1013.5
20260506123504 7 304 0.0 3.2 0.00 0.10 0.00 84 1013.4
20260506123024 7 303 0.0 3.2 0.00 0.10 0.00 84 1013.2
20260506122505 7 314 1.6 3.2 0.00 0.10 0.00 85 1013.3
20260506122007 6 328 0.0 3.2 0.00 0.10 0.00 87 1013.2
20260506121514 6 300 0.0 1.6 0.00 0.10 0.00 88 1013.1
20260506121004 5 266 0.0 1.6 0.00 0.10 0.00 89 1013.0
20260506120507 5 265 0.0 1.6 0.00 0.10 0.00 89 1012.9
20260506120023 5 265 0.0 1.6 0.00 0.10 0.00 89 1013.0
20260506115509 5 266 0.0 1.6 0.00 0.10 0.00 89 1012.8
20260506113507 4 265 0.0 1.6 0.00 0.10 0.00 90 1012.2
20260506113017 4 265 0.0 1.6 0.00 0.10 0.00 90 1012.2
20260506112508 3 266 0.0 1.6 0.00 0.10 0.00 91 1012.1
20260506112007 3 266 0.0 1.6 0.00 0.10 0.00 91 1011.9
20260506111522 3 266 0.0 1.6 0.00 0.13 0.00 91 1011.9
20260506111008 3 266 0.0 1.6 0.00 0.13 0.00 92 1012.1
20260506110509 3 266 0.0 1.6 0.00 0.13 0.00 92 1011.9
20260506110018 3 266 0.0 1.6 0.00 0.13 0.00 91 1011.9
20260506105507 3 346 0.0 0.0 0.00 0.13 0.00 91 1011.7
20260506105004 3 346 0.0 0.0 0.00 0.13 0.00 91 1011.5
20260506104526 3 346 0.0 0.0 0.00 0.13 0.00 90 1011.4
20260506104007 3 346 0.0 0.0 0.00 0.13 0.00 90 1011.5
20260506102005 4 346 0.0 1.6 0.00 0.13 0.00 89 1011.5
20260506101511 4 346 0.0 1.6 0.00 0.13 0.00 89 1011.6
20260506101004 4 346 0.0 1.6 0.00 0.13 0.00 89 1011.5
20260506100505 4 346 0.0 1.6 0.00 0.13 0.00 89 1011.4
20260506100019 4 346 0.0 1.6 0.00 0.13 0.00 88 1011.4
20260506095503 5 346 0.0 1.6 0.00 0.13 0.00 88 1011.3
20260506095003 5 319 0.0 1.6 0.00 0.13 0.00 87 1011.2
20260506094515 5 319 0.0 1.6 0.00 0.13 0.00 87 1011.1
20260506094004 5 319 0.0 0.0 0.00 0.13 0.00 87 1011.0
20260506093503 5 319 0.0 0.0 0.00 0.13 0.00 86 1010.8
20260506093006 5 319 0.0 0.0 0.00 0.13 0.00 85 1010.8
20260506092504 5 319 0.0 0.0 0.00 0.13 0.00 84 1010.6
20260506092004 6 319 0.0 1.6 0.00 0.13 0.00 84 1010.6
20260506091508 6 319 0.0 1.6 0.00 0.13 0.00 84 1011.0
20260506091007 6 319 0.0 1.6 0.00 0.13 0.00 83 1011.1
20260506090506 6 309 0.0 3.2 0.00 0.13 0.00 83 1011.2
20260506090015 6 309 1.6 3.2 0.00 0.13 0.00 83 1011.1
20260506085508 6 307 0.0 0.0 0.00 0.13 0.00 84 1011.2
20260506084515 6 307 0.0 1.6 0.00 0.13 0.00 84 1011.4
20260506084004 6 307 0.0 1.6 0.00 0.13 0.00 83 1011.3
20260506083504 6 307 0.0 1.6 0.00 0.13 0.00 82 1011.2
20260506082508 6 295 0.0 1.6 0.00 0.13 0.00 83 1010.9
20260506082004 6 287 0.0 1.6 0.00 0.13 0.00 83 1010.9
20260506081513 6 304 0.0 0.0 0.00 0.13 0.00 83 1010.8
20260506081003 6 304 0.0 0.0 0.00 0.13 0.00 83 1010.7
20260506080504 6 304 0.0 3.2 0.00 0.13 0.00 82 1010.6
20260506073507 7 309 0.0 1.6 0.00 0.13 0.00 79 1010.6
20260506073018 7 291 0.0 3.2 0.00 0.13 0.00 80 1010.6
20260506072509 7 313 0.0 4.8 0.00 0.13 0.00 79 1010.5
20260506072008 8 293 0.0 9.7 0.00 0.13 0.00 77 1010.5
20260506071519 8 289 3.2 9.7 0.00 0.13 0.00 79 1010.6
20260506071005 7 282 6.4 9.7 0.00 0.13 0.00 81 1010.7
20260506070504 7 281 6.4 8.0 0.00 0.13 0.00 81 1010.7
20260506061518 7 288 3.2 4.8 0.00 0.13 0.00 84 1010.5
20260506061007 7 282 1.6 3.2 0.00 0.13 0.00 86 1010.4
20260506060505 7 281 1.6 1.6 0.00 0.13 0.00 87 1010.5
20260506050510 9 3 0.0 0.0 0.00 0.13 0.00 85 1010.5
20260506045008 9 3 0.0 0.0 0.00 0.13 0.13 81 1010.2
20260506044007 9 3 0.0 1.6 0.00 0.13 0.13 77 1010.4
20260506043510 9 3 0.0 1.6 0.00 0.13 0.13 79 1010.2
20260506043010 9 3 0.0 1.6 0.00 0.13 0.13 78 1010.4
20260506042505 9 79 0.0 0.0 0.00 0.13 0.13 69 1010.3
20260506041514 9 79 0.0 4.8 0.00 0.15 0.13 77 1010.2
20260506041007 9 79 1.6 4.8 0.00 0.15 0.13 75 1010.4
20260506035508 9 221 0.0 6.4 0.00 0.15 0.13 77 1010.8
20260506035009 9 137 3.2 6.4 0.00 0.15 0.13 80 1010.4
20260506034522 9 127 3.2 6.4 0.00 0.15 0.13 83 1010.5
20260506034005 9 258 0.0 0.0 0.00 0.18 0.13 86 1010.7
20260506033507 9 281 0.0 1.6 0.00 0.20 0.13 86 1010.7
20260506033027 9 281 0.0 1.6 0.00 0.23 0.13 86 1010.7
20260506032506 9 290 0.0 0.0 0.00 0.23 0.13 84 1010.7
20260506032009 9 290 0.0 0.0 0.00 0.25 0.13 82 1010.9
20260506031006 9 290 0.0 0.0 0.00 0.36 0.13 83 1011.0
20260506030504 9 290 0.0 0.0 0.00 0.38 0.13 83 1011.0
20260506025504 9 290 0.0 0.0 0.00 0.48 0.13 82 1010.9
20260506025008 9 290 0.0 0.0 0.00 0.64 0.13 80 1010.8
20260506024527 9 301 0.0 0.0 0.00 0.79 0.13 81 1010.4
20260506024008 9 43 0.0 0.0 0.00 1.02 0.13 82 1010.4
20260506023508 9 85 0.0 0.0 0.00 1.02 0.13 81 1010.3
20260506023023 9 85 0.0 0.0 0.00 1.02 0.13 80 1010.2
20260506022509 9 85 0.0 0.0 0.00 1.02 0.13 80 1010.0
20260506022009 9 85 0.0 0.0 0.00 1.02 0.13 80 1009.9
20260506021522 9 85 0.0 0.0 0.00 1.02 0.13 79 1009.9
20260506021006 9 84 0.0 0.0 0.00 1.02 0.13 79 1009.9
20260506020506 9 84 0.0 1.6 0.00 1.02 0.13 80 1009.9
20260506015504 9 352 0.0 1.6 0.00 1.02 0.13 81 1009.9
20260506015007 9 352 0.0 0.0 0.00 1.02 0.13 83 1009.9
20260506014005 9 352 0.0 0.0 0.00 1.02 0.13 83 1009.8
20260506013510 10 352 0.0 0.0 0.00 1.02 0.13 83 1009.7
20260506013021 10 352 0.0 0.0 0.00 1.02 0.13 81 1009.4
20260506012508 9 352 0.0 0.0 0.00 1.02 0.13 79 1009.4
20260506012010 10 352 0.0 1.6 0.00 1.02 0.13 78 1009.3
20260506011523 10 352 0.0 1.6 0.00 1.02 0.13 78 1009.2
20260506011006 10 352 0.0 1.6 0.00 1.02 0.13 77 1009.1
20260506010511 10 352 0.0 1.6 0.00 1.02 0.13 76 1009.1
20260506010046 10 352 0.0 1.6 0.00 1.02 0.13 74 1009.1
20260506005509 10 20 0.0 0.0 0.00 1.02 0.13 75 1009.1
20260506005006 10 20 0.0 0.0 0.00 1.02 0.13 75 1008.9
20260506004006 10 20 0.0 0.0 0.00 1.02 0.13 74 1008.7
20260506003506 10 20 0.0 0.0 0.00 1.02 0.13 73 1008.7
20260506002509 10 20 0.0 1.6 0.00 1.02 0.13 71 1008.5
20260506002008 10 20 0.0 1.6 0.00 1.02 0.13 72 1008.5
20260506001519 10 20 0.0 1.6 0.00 1.02 0.13 71 1008.7
20260506001009 10 20 0.0 1.6 0.00 1.02 0.13 71 1008.6
20260506000508 10 15 0.0 3.2 0.00 1.02 0.13 70 1008.7
20260506000024 10 15 0.0 3.2 0.00 1.02 0.13 69 1008.9
20260505235509 10 3 0.0 3.2 0.00 1.02 0.13 69 1009.0
20260505235011 10 67 0.0 3.2 0.00 1.02 0.13 68 1009.1
20260505234522 10 31 1.6 3.2 0.00 1.02 0.13 71 1009.1
20260505234009 10 326 1.6 3.2 0.00 1.02 0.13 74 1009.2
20260505233507 10 289 0.0 3.2 0.00 1.02 0.13 79 1009.1
20260505233014 10 345 0.0 3.2 0.00 1.02 0.13 80 1009.2
20260505232507 10 268 0.0 1.6 0.00 1.02 0.13 80 1009.2
20260505232005 10 355 0.0 3.2 0.00 1.02 0.13 78 1008.9
20260505231507 10 294 0.0 3.2 0.00 1.02 0.13 77 1008.9
20260505231004 10 305 1.6 4.8 0.00 1.02 0.13 77 1008.8
20260505230503 10 310 0.0 4.8 0.00 1.02 0.13 77 1008.7
20260505230003 10 269 0.0 3.2 0.00 1.02 0.13 78 1008.9
20260505225504 10 268 0.0 3.2 0.00 1.02 0.13 77 1008.8
20260505225003 10 308 1.6 3.2 0.00 1.02 0.13 75 1008.8
20260505224509 10 34 1.6 3.2 0.00 1.02 0.13 76 1008.8
20260505224004 10 255 1.6 4.8 0.00 1.02 0.13 75 1008.6
20260505223503 10 307 1.6 4.8 0.00 1.02 0.13 75 1008.7
20260505223014 10 319 0.0 3.2 0.00 1.02 0.13 76 1008.8
20260505222508 10 295 0.0 3.2 0.00 1.02 0.13 77 1008.5
20260505222007 10 295 0.0 3.2 0.00 1.02 0.13 74 1008.4
20260505221516 10 313 1.6 3.2 0.00 1.02 0.13 74 1008.5
20260505221009 10 20 1.6 3.2 0.00 1.02 0.13 74 1008.7
20260505220507 10 285 1.6 4.8 0.00 1.02 0.13 73 1008.8
20260505220004 10 90 0.0 4.8 0.00 1.02 0.13 73 1008.9
20260505215505 10 336 0.0 4.8 0.00 1.02 0.13 74 1008.9
20260505215003 10 281 0.0 3.2 0.00 1.02 0.13 72 1009.1
20260505214508 10 271 0.0 3.2 0.00 1.02 0.13 72 1009.2
20260505214003 10 330 1.6 4.8 0.00 1.02 0.13 73 1009.2
20260505213502 10 322 0.0 4.8 0.00 1.02 0.13 75 1009.3
20260505213020 10 337 0.0 1.6 0.00 1.02 0.13 73 1009.4
20260505212506 10 31 0.0 3.2 0.00 1.02 0.13 75 1009.5
20260505212004 10 344 0.0 3.2 0.00 1.02 0.13 73 1009.5
20260505211512 10 27 0.0 3.2 0.03 1.02 0.13 75 1009.5
20260505211006 10 287 0.0 3.2 0.03 1.02 0.13 76 1009.5
20260505210507 10 310 0.0 3.2 0.03 1.02 0.13 76 1009.8
20260505210018 10 300 1.6 3.2 0.03 1.02 0.13 75 1010.0
20260505205508 10 291 0.0 4.8 0.03 1.02 0.13 76 1009.9
20260505205008 10 65 0.0 4.8 0.03 1.02 0.13 73 1010.0
20260505204504 10 56 0.0 6.4 0.05 1.02 0.13 74 1010.0
20260505204005 10 270 0.0 6.4 0.05 1.02 0.13 74 1010.1
20260505203503 10 262 0.0 4.8 0.08 1.02 0.13 75 1010.1
20260505203005 10 55 1.6 4.8 0.08 1.02 0.13 75 1010.2
20260505202503 10 288 0.0 3.2 0.10 1.02 0.13 74 1010.2
20260505202006 10 340 1.6 3.2 0.10 1.02 0.13 75 1010.4
20260505201514 10 347 1.6 6.4 0.08 0.99 0.10 74 1010.4
20260505201004 10 34 0.0 6.4 0.08 0.99 0.10 76 1010.4
20260505200508 9 316 1.6 4.8 0.08 0.99 0.10 73 1010.3
20260505200018 9 333 0.0 4.8 0.08 0.99 0.10 76 1010.4
20260505195505 9 12 1.6 4.8 0.08 0.99 0.10 75 1010.3
20260505195007 10 316 1.6 6.4 0.08 0.99 0.10 76 1010.4
20260505194520 10 326 1.6 6.4 0.05 0.97 0.08 77 1010.4
20260505194008 10 347 1.6 8.0 0.05 0.97 0.08 78 1010.4
20260505193509 10 326 3.2 8.0 0.03 0.94 0.05 74 1010.4
20260505193004 10 347 3.2 6.4 0.03 0.94 0.05 73 1010.4
20260505192505 11 319 3.2 6.4 0.00 0.91 0.03 68 1010.6
20260505192005 11 289 1.6 8.0 0.00 0.91 0.03 67 1010.5
20260505191508 11 327 3.2 8.0 0.00 0.91 0.03 64 1010.4
20260505191005 11 38 3.2 8.0 0.00 0.91 0.03 62 1010.3
20260505190507 11 262 3.2 9.7 0.00 0.91 0.03 63 1010.2
20260505190022 11 360 3.2 9.7 0.00 0.91 0.03 66 1010.1
20260505185507 12 311 1.6 9.7 0.00 0.91 0.03 71 1010.0
20260505185005 12 153 1.6 8.0 0.00 0.91 0.03 70 1010.1
20260505184518 12 294 1.6 8.0 0.00 0.91 0.03 70 1010.0
20260505184007 12 11 1.6 6.4 0.00 0.91 0.03 74 1010.0
20260505183508 12 229 1.6 6.4 0.00 0.91 0.03 73 1010.0
20260505183020 12 259 1.6 6.4 0.00 0.91 0.03 74 1010.1
20260505182507 12 213 1.6 6.4 0.00 0.91 0.03 74 1010.1
20260505182009 12 345 1.6 6.4 0.00 0.91 0.03 73 1010.1
20260505181506 12 101 3.2 6.4 0.00 0.91 0.03 75 1009.9
20260505181004 12 278 1.6 6.4 0.00 0.91 0.03 74 1010.0
20260505180503 12 262 1.6 6.4 0.00 0.91 0.03 74 1010.0
20260505180011 12 289 1.6 9.7 0.00 0.91 0.03 75 1010.0
20260505175504 12 4 1.6 9.7 0.00 0.91 0.03 73 1010.0
20260505175006 12 340 3.2 6.4 0.00 0.91 0.03 73 1010.0
20260505174514 12 70 3.2 9.7 0.00 0.91 0.03 74 1010.0
20260505174007 12 226 1.6 9.7 0.00 0.91 0.03 79 1010.2
20260505173507 11 42 3.2 9.7 0.00 0.91 0.03 78 1010.3
20260505173023 11 288 1.6 6.4 0.00 0.91 0.03 75 1010.3
20260505172506 11 281 1.6 6.4 0.00 0.91 0.03 77 1010.1
20260505172007 10 58 3.2 6.4 0.00 0.91 0.03 78 1010.2
20260505171529 10 317 1.6 9.7 0.00 0.91 0.03 79 1010.0
20260505171009 10 63 4.8 9.7 0.00 0.91 0.03 77 1010.0
20260505170509 10 343 4.8 9.7 0.00 0.91 0.03 78 1009.8
20260505170009 10 336 3.2 9.7 0.00 0.91 0.03 78 1009.9
20260505165506 10 254 1.6 6.4 0.00 0.91 0.03 78 1010.1
20260505165004 10 44 1.6 4.8 0.00 0.91 0.03 77 1010.3